Montrose, CO

5:45 AM MDT on April 27, 2017 (GMT -0600)
Montrose Regional

Weather History for KMTJ - July, 2013

Change the Weather History Date:

Monday, July 22, 2013

  Actual Average Record
Temperature  
Mean Temperature 79 °F 74 °F  
Max Temperature 95 °F 90 °F 99 °F (2003)
Min Temperature 63 °F 58 °F 52 °F (2000)
Degree Days  
Heating Degree Days 0 0  
Month to date heating degree days 0 0  
Since 1 June heating degree days 9 39  
Since 1 July heating degree days 0 0  
Cooling Degree Days 14 9  
Month to date cooling degree days 268 190  
Year to date cooling degree days 532 342  
Since 1 June cooling degree days 507 325  
Growing Degree Days 30 (Base 50)    
Moisture  
Dew Point 40 °F    
Average Humidity 27    
Maximum Humidity 45    
Minimum Humidity 8    
Precipitation  
Precipitation 0.00 in 0.04 in 0.01 in (1999)
Month to date precipitation 1.24 0.59  
Year to date precipitation 3.89 5.66  
Sea Level Pressure  
Sea Level Pressure 29.83 in    
Wind  
Wind Speed 7 mph (South)    
Max Wind Speed 13 mph    
Max Gust Speed 17 mph    
Visibility 10 miles    
Events      
T = Trace of Precipitation, MM = Missing Value Source: NWS Daily Summary

Daily Weather History Graph

Daily Weather History Graph

Search for Another Location

Airport or City:

Trip Planner

Search our weather history database for the weather conditions in past years. The results will help you decide how hot, cold, wet, or windy it might be!

Date:

Astronomy

Jul. 22, 2013 Rise Set
Actual Time 6:05 AM MDT 8:30 PM MDT
Civil Twilight 5:34 AM MDT 9:00 PM MDT
Nautical Twilight 4:57 AM MDT 9:37 PM MDT
Astronomical Twilight 4:15 AM MDT 10:19 PM MDT
Moon 8:19 PM MDT (7/22) 6:04 AM MDT (7/22)
Length of Visible Light 15h 25m
Length of Day
14h 25m
Full, 100% of the Moon is Illuminated
Jul 22
Full
Jul 22
Full
Jul 29
Last Quarter
Aug 6
New
Aug 14
First Quarter

Hourly Weather History & Observations

Time (MDT) Temp. Dew Point Humidity Pressure Visibility Wind Dir Wind Speed Gust Speed Precip Events Conditions
12:53 AM 71.1 °F 45.0 °F 39% 29.80 in 10.0 mi SSE 8.1 mph - N/A   Clear
1:53 AM 68.0 °F 46.0 °F 45% 29.82 in 10.0 mi South 6.9 mph - N/A   Clear
2:53 AM 68.0 °F 45.0 °F 43% 29.84 in 10.0 mi ESE 9.2 mph - N/A   Clear
3:53 AM 66.9 °F 45.0 °F 45% 29.84 in 10.0 mi ESE 9.2 mph - N/A   Clear
4:53 AM 66.0 °F 45.0 °F 47% 29.85 in 10.0 mi ESE 5.8 mph - N/A   Clear
5:53 AM 66.9 °F 44.1 °F 44% 29.86 in 10.0 mi SE 8.1 mph - N/A   Clear
6:53 AM 66.0 °F 45.0 °F 47% 29.88 in 10.0 mi SE 6.9 mph - N/A   Clear
7:53 AM 71.1 °F 46.0 °F 41% 29.89 in 10.0 mi SE 6.9 mph - N/A   Clear
8:53 AM 75.0 °F 46.9 °F 37% 29.91 in 10.0 mi Calm Calm - N/A   Clear
9:53 AM 79.0 °F 46.0 °F 31% 29.90 in 10.0 mi SSW 3.5 mph - N/A   Clear
10:53 AM 82.9 °F 46.0 °F 27% 29.89 in 10.0 mi Variable 3.5 mph - N/A   Clear
11:53 AM 86.0 °F 46.0 °F 25% 29.87 in 10.0 mi WNW 6.9 mph - N/A   Clear
12:53 PM 87.1 °F 46.0 °F 24% 29.86 in 10.0 mi Variable 4.6 mph - N/A   Clear
1:53 PM 91.0 °F 39.9 °F 17% 29.83 in 10.0 mi WNW 4.6 mph - N/A   Clear
2:53 PM 91.9 °F 28.9 °F 11% 29.81 in 10.0 mi NW 9.2 mph - N/A   Clear
3:53 PM 93.9 °F 27.0 °F 9% 29.79 in 10.0 mi WNW 9.2 mph - N/A   Clear
4:53 PM 93.9 °F 23.0 °F 8% 29.77 in 10.0 mi NW 8.1 mph - N/A   Clear
5:53 PM 93.0 °F 26.1 °F 9% 29.75 in 10.0 mi West 6.9 mph - N/A   Clear
6:53 PM 91.9 °F 32.0 °F 12% 29.76 in 10.0 mi West 5.8 mph - N/A   Clear
7:53 PM 88.0 °F 39.0 °F 18% 29.75 in 10.0 mi SW 4.6 mph - N/A   Clear
8:53 PM 80.1 °F 45.0 °F 29% 29.78 in 10.0 mi ESE 3.5 mph - N/A   Clear
9:53 PM 75.9 °F 41.0 °F 29% 29.81 in 10.0 mi SE 9.2 mph - N/A   Clear
10:53 PM 75.0 °F 37.9 °F 26% 29.82 in 10.0 mi SE 10.4 mph - N/A   Clear
11:53 PM 73.9 °F 35.1 °F 24% 29.82 in 10.0 mi SE 10.4 mph - N/A   Clear